Find WHDW 02-08

NORAD ID: 62978 Int'l Des: 2025-030 Owner: ZXW Country: CN Constellation: xingwang operational
LEOCIRCULAR

Live Position

Loading 3D Globe...

About WHDW 02-08

Description loading...

Upcoming Passes

Passes for default location (London). Set your location on the main map for personalized predictions.

Altitude History

Loading altitude history...

Two-Line Element Set

1 62978U 25030H 26104.49976618 -.00000080 00000-0 95966-4 0 9993
2 62978 50.0050 103.9337 0001214 304.7562 55.3195 13.29325765 57390
Epoch: Apr 14, 2026 • Age: 12 hours

Current Status

Altitude 1165.6 km
Velocity 7.27 km/s
Sub-Earth Point -50.07°S, 170.38°E
Launch Date Feb 11, 2025
Age 1.1 years
Type other

Technical Details

Classification Payload
Mass 700.00 kg
Dry Mass 700.00 kg
Total Mass 700.00 kg
Length 3.00 m
Diameter 1.00 m
Span 10.00 m
Shape Box + 2 Pan
Manufacturer CAST
Bus Type Xingwang C
Phase Status In Orbit
Owner/State ZXW/CN

Most Searched